Terminal Aerodrome Forecast
Issued by NWS

Home | Current Version | Previous Version | Text Only | Print | Product List | Glossary On
Versions: 1 2 3 4 5 6 7 8 9 10 11 12 13 14 15
000
FTUS43 KGRB 042326
TAFCWA
TAF
KCWA 042326Z 0500/0524 17005KT 2SM -FZDZSN BKN006 OVC012
     FM050100 22007KT 4SM BR BKN006 OVC012
     FM050300 25007KT 4SM BR OVC012
     FM051200 22004KT 4SM BR BKN250
      TEMPO 0512/0514 2SM BR
     FM051500 16006KT P6SM BKN250
     FM051800 16008KT P6SM OVC080
      AMD LTD TO CLD VIS AND WIND 0503/0511=

USA.gov is the U.S. government's official web portal to all federal, state and local government web resources and services.